STARLINK-2314, 47788

Orbit data source: Space-Track

STARLINK-2314, 47788 is a payload satellite owned by SpaceX/Seattle (US) in LEO that was launched on Thu, 11 Mar 2021 UTC via an FALCON 9 launch vehicle from the Air Force Eastern Test Range (AFETR). Payload-class satellites include a variety of spacecraft equipped with specific instruments for various scientific and technological missions. These include communications satellites like Starlink; space stations such as the ISS; scientific satellites like the Hubble; Earth observation satellites from companies like Planet Labs, Umbra, and HawkEye 360; GPS; miniature CubeSats for education and research; and military/defense satellites.

Loading next visibility...
Identifier
47788, 2021-018B
Orbit
LEO
Country
Flag of USUS
Related business
Manufacturer
SpaceX/Seattle
Mission
Operational Commercial Communications
Bus & Motor
STARLINK, Unknown motor
Mass
260 kg wet, ~248 kg dry
Launch date (UTC)
2021-03-11 (5 years ago)
Launch vehicle
FALCON 9
Launch site
Air Force Eastern Test Range (AFETR)
Object type
Payload
Rocket body
Debris
Shape & HBR
Box + 1 Pan, 10.1 m
Radar Cross Section
13.562 m², Large (>1 m²)

Expand to show TLE details & history
Last TLE update: 9 hours ago

TLE from 9 hours ago
0 STARLINK-2314
1 47788U 21018B   26035.36650868  .00015334  00000-0  54200-3 0  9994
2 47788  53.1559  14.5167 0001610  98.5765 261.5418 15.29392524271960
Epoch: 2026-02-04T08:47Z
TLE epoch observation values (Epoch: 2026-02-04T08:47:46.349Z)
Latitude
-0.00003°
Longitude
108.03944°
Altitude
478.689 km
Speed
7.627 km/s
True Right ascension
00h 58m 04s
True Declination
0° 00' 00"
Sunlit
Object was in daylight at epoch
Visualization orbit readout
Latitude
Unknown
Longitude
Unknown
Altitude
Unknown
Speed
Unknown
Apparent Right ascension
Unknown
Apparent Declination
Unknown
Sunlit
N/A
Visualization observer readout
Local Sidereal Time
19:59:33
Azimuth
Unknown
Elevation
Unknown
Doppler factor
Unknown
Orbital elements
Apogee altitude
478.988 km
Perigee altitude
476.78 km
Semi-major axis
6,856.021 km
Eccentricity
0.00016
Inclination
53.1559°
RAAN
14.5167°
Arg. of periapsis
98.5765°
True anomaly
261.52355°
Mean anomaly
261.5418°
Eccentric anomaly
261.53268°
Mean motion
3.82327 °/min
Orbital period
94.16 mins
BSTAR
0.000542
Loading maneuver chart data...
Computing Atmospheric mass density...
Loading historical data...
Loading historical data...
Loading historical data...
Loading historical data...
Loading historical data...
Loading historical data...
Loading historical data...

Documentation

Showing up to 5 results
|